Date,TemperatureHighF,TemperatureAvgF,TemperatureLowF,DewpointHighF,DewpointAvgF,DewpointLowF,HumidityHigh,HumidityAvg,HumidityLow,PressureMaxIn,PressureMinIn,WindSpeedMaxMPH,WindSpeedAvgMPH,GustSpeedMaxMPH,PrecipitationSumIn
2013-1-1,27.9,23.6,15.4,23.2,18.7,10.9,86,81,72,30.29,30.12,14,7,18,0.00
2013-1-2,36.3,23.4,10.6,27.4,17.5,5.9,86,78,65,30.28,30.14,11,3,15,0.01
2013-1-3,36.6,27.3,19.1,26.7,20.1,13.6,87,75,55,30.44,30.27,13,4,18,0.00
2013-1-4,45.6,30.2,14.8,28.3,21.6,10.3,86,71,49,30.40,30.22,11,4,17,0.00
2013-1-5,48.9,39.6,33.4,32.7,28.1,20.8,78,64,46,30.27,30.09,13,9,19,0.00
2013-1-6,50.3,35.9,26.9,25.0,22.3,18.9,74,60,33,30.40,30.25,11,5,16,0.00
2013-1-7,54.3,39.0,27.9,27.6,22.6,-99.9,71,55,33,30.25,30.03,16,9,20,0.00
2013-1-8,57.5,42.2,32.3,35.0,30.3,24.5,81,64,40,30.20,29.95,13,7,21,0.00
2013-1-9,54.8,42.1,29.1,35.3,30.3,23.5,83,65,43,30.40,30.20,12,7,17,0.00
2013-1-10,49.3,46.2,42.6,46.2,42.2,32.8,90,86,54,30.21,29.75,12,6,17,0.40
2013-1-11,60.9,51.7,43.4,48.9,43.4,23.6,91,75,35,29.86,29.58,16,11,26,0.01
2013-1-12,43.0,29.6,23.0,32.4,17.6,-99.9,75,62,56,30.11,29.85,22,3,27,0.00
2013-1-13,29.3,21.7,14.5,10.5,8.1,5.1,70,56,36,30.34,30.08,19,10,24,0.00
2013-1-14,32.7,22.8,13.4,14.5,10.6,6.6,83,61,38,30.45,30.31,9,4,19,0.00
2013-1-15,35.6,25.4,17.2,14.4,12.1,9.2,77,58,35,30.34,30.18,8,3,10,0.00
2013-1-16,51.2,33.3,17.7,30.8,21.3,10.7,83,62,45,30.22,30.06,10,4,13,0.00
2013-1-17,54.8,41.0,31.1,32.7,28.4,24.8,78,62,39,30.48,30.22,13,6,15,0.00
2013-1-18,59.6,43.8,30.0,34.1,29.9,24.3,86,61,35,30.40,30.06,20,10,28,0.00
2013-1-19,63.6,46.7,29.9,34.4,27.8,23.9,86,52,23,30.23,30.04,12,5,15,0.00
2013-1-20,53.1,38.6,27.4,29.3,22.5,7.0,80,54,34,30.36,30.16,21,9,25,0.00
2013-1-21,37.5,27.3,17.4,15.2,11.9,6.0,74,53,38,30.41,30.25,18,4,21,0.00
2013-1-22,46.2,30.0,17.6,23.1,16.3,10.0,77,58,35,30.28,30.16,9,4,21,0.00
2013-1-23,57.0,37.5,19.6,32.8,23.7,13.7,84,60,35,30.28,30.11,17,4,25,0.00
2013-1-24,29.4,26.9,24.7,22.5,16.4,10.1,85,66,45,30.34,30.10,14,5,22,0.00
2013-1-25,50.6,36.6,23.6,26.2,23.5,18.8,86,62,36,30.25,30.13,7,2,22,0.00
2013-1-26,59.0,44.6,30.0,38.4,30.9,22.5,78,60,36,30.23,30.02,15,8,20,0.01
2013-1-27,68.5,54.1,44.4,55.8,48.1,37.4,91,81,61,30.02,29.74,19,12,25,0.00
2013-1-28,74.5,61.9,46.6,59.9,53.0,42.4,89,74,42,29.85,29.66,23,12,36,0.00
2013-1-29,65.7,45.6,35.7,59.4,39.6,31.3,86,80,67,29.70,29.54,17,11,21,0.02
2013-1-30,35.8,30.2,19.6,31.3,21.7,13.3,86,71,52,30.00,29.64,27,14,34,0.00
2013-1-31,33.4,24.4,15.6,23.8,15.4,6.9,82,68,50,30.43,29.96,24,9,34,0.00
2013-2-1,37.7,24.3,11.6,15.2,9.5,5.8,80,55,32,30.41,30.14,10,4,16,0.00
2013-2-2,57.6,41.6,24.7,34.1,25.2,12.3,78,54,32,30.26,30.14,18,7,28,0.00
2013-2-3,58.1,46.0,28.1,29.9,24.9,19.8,76,46,25,30.27,29.85,16,8,22,0.00
2013-2-4,58.4,46.3,30.9,31.7,28.6,23.9,78,52,32,29.98,29.80,17,8,21,0.00
2013-2-5,66.5,44.7,24.6,32.8,24.6,19.9,86,52,20,30.05,29.92,12,4,14,0.00
2013-2-6,59.2,49.8,36.8,53.6,41.6,25.4,89,74,50,30.04,29.83,16,8,19,0.00
2013-2-7,55.4,49.6,38.8,49.9,41.6,29.8,90,75,52,30.20,29.83,23,11,31,0.24
2013-2-8,47.1,35.6,26.2,35.6,29.3,21.7,89,78,60,30.33,30.13,10,6,18,0.00
2013-2-9,51.9,40.9,33.9,41.5,35.4,29.3,90,81,64,30.13,29.64,20,12,28,0.02
2013-2-10,53.1,44.9,36.6,44.5,31.8,23.8,90,62,40,30.06,29.52,29,14,42,0.01
2013-2-11,48.0,37.5,30.4,24.9,19.8,-99.9,71,51,30,30.22,30.06,15,7,23,0.00
2013-2-12,42.9,35.3,28.1,31.0,25.3,20.0,86,68,44,30.16,30.00,8,4,21,0.00
2013-2-13,59.9,40.6,25.2,29.8,24.6,15.8,88,59,19,30.02,29.88,16,6,21,0.00
2013-2-14,52.8,42.2,28.2,33.4,27.4,17.9,77,57,40,30.26,29.93,21,9,29,0.00
2013-2-15,42.5,33.2,22.4,21.3,16.3,11.7,75,52,30,30.41,30.26,21,10,27,0.00
2013-2-16,48.7,33.0,16.6,27.9,18.5,8.6,75,57,34,30.36,30.00,14,6,27,0.00
2013-2-17,70.1,47.9,24.9,35.5,27.9,20.3,88,52,18,30.00,29.60,18,8,24,0.00
2013-2-18,56.1,48.0,29.9,40.6,27.9,16.8,69,46,33,30.14,29.49,32,18,41,0.00
2013-2-19,46.7,34.5,22.9,20.6,16.2,10.4,74,49,30,30.33,30.14,16,6,30,0.00
2013-2-20,33.1,30.1,25.9,28.0,19.2,5.7,85,67,33,30.24,29.99,16,6,20,0.05
2013-2-21,33.1,25.6,16.4,30.2,21.3,-99.9,89,86,83,30.00,29.69,15,9,23,0.02
2013-2-22,26.4,18.3,12.1,21.9,12.7,-99.9,85,82,81,30.12,29.91,14,7,22,0.04
2013-2-23,35.4,20.1,3.8,30.3,14.1,-99.9,93,80,77,30.10,29.90,8,4,21,0.06
2013-2-24,44.9,34.9,21.6,34.4,28.1,17.0,85,76,63,29.91,29.76,13,8,17,0.01
2013-2-25,38.8,35.2,33.0,32.0,30.4,28.3,89,83,77,29.86,29.65,31,18,38,0.03
2013-2-26,36.7,32.0,28.7,29.8,25.1,-99.9,89,79,70,29.93,29.69,16,4,21,0.04
2013-2-27,39.3,33.2,27.8,27.2,25.5,23.5,86,74,57,30.17,29.91,25,11,30,0.00
2013-2-28,36.7,33.1,27.7,27.9,25.5,20.9,86,73,68,30.23,30.15,18,11,21,0.00
2013-3-1,35.3,31.5,25.9,26.4,23.4,17.9,79,72,62,30.33,30.20,17,10,22,0.00
2013-3-2,38.2,29.3,16.3,26.3,20.4,11.2,84,70,54,30.35,30.13,8,3,11,0.00
2013-3-3,53.5,40.5,25.9,39.4,31.0,20.3,84,69,57,30.13,29.63,10,6,13,0.00
2013-3-4,49.3,43.4,36.4,39.8,35.1,30.2,83,72,61,30.07,29.57,25,13,31,0.06
2013-3-5,43.2,36.7,30.4,34.2,21.8,16.9,82,55,41,30.38,30.07,23,14,30,0.01
2013-3-6,47.1,35.1,21.7,26.6,22.2,15.3,80,60,39,30.41,30.17,11,5,21,0.00
2013-3-7,67.6,49.8,34.0,33.7,28.7,24.3,69,47,24,30.17,29.98,18,11,26,0.00
2013-3-8,61.6,53.0,45.7,47.7,40.0,31.0,74,61,51,30.09,29.89,21,14,27,0.00
2013-3-9,59.7,55.4,43.5,56.5,50.4,38.7,91,83,69,29.91,29.58,19,11,24,0.97
2013-3-10,43.5,34.6,30.5,39.4,28.4,21.7,86,78,69,30.04,29.61,28,19,37,0.00
2013-3-11,49.8,35.8,25.1,30.3,21.0,15.3,76,57,28,30.04,29.95,16,8,21,0.00
2013-3-12,54.4,45.0,37.2,36.2,28.8,20.9,79,55,34,30.35,30.02,16,7,22,0.01
2013-3-13,56.9,41.8,27.1,33.5,26.4,19.5,83,57,33,30.44,30.25,12,6,18,0.00
2013-3-14,76.8,54.8,34.7,51.0,38.9,27.5,78,57,34,30.25,30.06,11,5,15,0.00
2013-3-15,79.6,60.9,42.9,54.8,46.3,38.0,84,61,36,30.09,29.71,12,5,17,0.00
2013-3-16,55.0,48.9,39.9,47.0,38.2,30.2,81,67,53,29.98,29.72,22,15,30,0.00
2013-3-17,43.7,39.6,36.7,35.8,32.5,28.8,86,76,68,29.99,29.69,18,10,25,0.01
2013-3-18,58.7,46.4,38.6,36.9,29.5,17.4,87,58,21,30.04,29.75,20,8,27,0.00
2013-3-19,55.1,43.0,28.7,31.8,23.4,18.0,80,48,25,30.27,30.02,14,6,20,0.00
2013-3-20,49.4,39.7,30.1,29.5,21.6,12.2,86,53,26,30.40,30.02,15,6,18,0.00
2013-3-21,49.4,40.8,35.6,29.8,22.2,17.4,79,49,32,30.02,29.72,24,14,32,0.00
2013-3-22,51.3,39.7,32.9,34.4,31.2,28.9,86,73,51,29.95,29.83,12,7,17,0.00
2013-3-23,38.0,36.2,34.0,32.9,31.4,29.7,87,83,75,29.95,29.88,14,9,18,0.00
2013-3-27,55.3,47.9,42.5,36.5,35.1,32.2,71,61,49,30.13,30.08,7,4,8,0.00
2013-3-28,69.2,52.0,34.3,50.6,39.6,29.2,84,64,45,30.16,30.04,9,5,13,0.00
2013-3-29,73.4,58.4,45.8,56.5,45.5,-99.9,89,68,51,30.14,30.02,12,6,19,0.00
2013-3-30,74.7,61.8,53.4,59.2,54.1,49.0,88,77,49,30.03,29.87,11,6,17,0.28
2013-3-31,67.4,57.0,47.6,51.8,43.4,34.5,88,64,32,30.06,29.93,28,8,42,0.04
2013-4-1,48.9,41.8,37.7,39.2,33.5,27.2,84,72,59,30.28,29.96,19,10,24,0.34
2013-4-2,42.7,38.6,34.3,31.9,29.4,26.9,86,70,57,30.28,30.20,13,7,16,0.18
2013-4-3,41.4,39.8,38.6,34.5,31.4,26.1,82,72,57,30.32,30.21,13,7,17,0.00
2013-4-4,58.0,46.7,35.1,43.1,37.7,31.3,88,72,54,30.23,30.10,8,4,12,0.00
2013-4-5,65.6,51.6,34.7,49.3,41.7,31.4,89,71,51,30.16,29.83,17,8,23,0.00
2013-4-6,76.7,62.6,54.4,52.8,45.8,39.8,73,57,29,29.88,29.74,17,9,25,0.00
2013-4-7,70.6,58.7,49.4,60.6,51.8,41.4,88,78,64,29.87,29.67,16,7,25,0.07
2013-4-8,73.0,65.8,59.1,62.7,59.2,55.5,89,80,67,29.71,29.60,18,11,23,0.00
2013-4-9,76.0,59.7,34.1,65.3,52.8,30.1,86,78,55,29.98,29.59,31,15,35,0.29
2013-4-10,35.0,33.0,31.7,31.2,28.6,27.4,86,84,81,30.02,29.83,26,2,39,0.43
2013-4-11,54.4,40.0,29.4,35.8,29.9,25.1,84,69,40,29.96,29.74,14,4,39,0.01
2013-4-12,57.1,43.8,32.9,38.9,31.2,-99.9,78,64,44,30.03,29.85,13,6,17,0.00
2013-4-13,72.3,55.5,36.8,54.4,42.9,31.4,84,64,47,30.05,29.63,18,9,24,0.00
2013-4-14,73.3,64.0,58.0,58.3,45.9,27.5,70,54,25,29.74,29.50,22,13,26,0.00
2013-4-15,58.8,54.3,47.4,37.1,31.7,25.6,49,42,30,29.95,29.73,21,12,27,0.00
2013-4-16,50.1,46.3,44.1,40.3,35.4,28.3,86,66,48,30.06,29.91,22,14,30,0.01
2013-4-17,47.9,45.5,42.9,44.8,42.3,39.3,89,88,86,29.98,29.68,22,11,28,0.19
2013-4-18,43.0,38.4,34.6,39.2,30.3,25.2,87,73,58,30.08,29.69,25,17,34,0.09
2013-4-19,64.1,46.0,31.0,36.3,29.1,23.8,75,55,28,30.12,29.99,17,10,33,0.00
2013-4-20,64.2,51.7,37.9,42.9,35.2,29.5,74,55,39,30.11,29.98,16,9,21,0.00
2013-4-21,68.8,58.8,50.3,47.9,42.9,38.0,77,56,41,30.16,30.04,17,10,26,0.00
2013-4-22,72.3,57.5,40.5,58.5,46.9,36.9,87,69,55,30.08,29.81,29,12,35,1.08
2013-4-23,40.5,35.4,32.8,36.5,30.3,26.2,87,82,67,30.26,29.95,31,19,39,0.99
2013-4-24,58.4,43.1,28.5,38.4,31.3,24.4,86,66,32,30.31,30.20,11,4,38,0.00
2013-4-25,68.0,52.3,33.9,47.3,38.5,29.6,85,62,39,30.30,30.03,24,6,27,0.00
2013-4-26,58.3,53.1,51.6,49.1,46.1,36.5,88,78,45,30.15,30.06,19,8,25,0.29
2013-4-27,65.8,54.8,50.0,53.9,49.3,46.6,89,82,59,30.15,30.01,11,6,15,0.01
2013-4-28,79.8,61.5,43.4,62.5,52.8,40.4,91,75,45,30.02,29.79,11,6,18,0.00
2013-4-29,84.6,70.4,54.5,65.7,57.2,50.6,90,65,45,29.80,29.64,16,8,22,0.00
2013-4-30,82.6,72.3,61.6,64.8,57.5,51.6,80,61,46,29.79,29.68,19,13,27,0.00
2013-5-1,77.1,60.1,41.1,66.4,50.9,34.4,86,72,58,30.26,29.78,31,15,38,0.01
2013-5-2,50.9,42.2,36.8,36.3,33.3,28.1,87,72,42,30.46,30.22,31,20,38,0.77
2013-5-3,59.4,48.0,37.2,36.6,31.0,26.9,74,54,31,30.37,30.01,21,11,28,0.00
2013-5-4,50.4,45.6,42.3,40.6,34.9,28.3,80,67,55,30.10,29.92,23,14,28,0.01
2013-5-5,63.1,51.7,43.8,51.2,44.9,39.0,88,78,63,30.17,30.08,14,8,27,0.00
2013-5-6,49.7,46.6,44.1,46.0,43.5,40.9,90,89,87,30.14,30.09,6,4,12,0.00
2013-5-7,56.2,56.1,56.0,51.9,51.8,51.7,86,85,85,30.09,30.08,1,1,2,0.00
2013-5-8,79.2,71.6,61.4,65.7,60.5,51.5,79,68,60,29.96,29.79,23,8,31,0.78
2013-5-9,74.8,65.9,57.6,61.6,56.0,51.7,88,71,52,30.01,29.81,23,6,34,0.34
2013-5-10,71.9,62.3,54.8,56.5,52.9,48.6,87,72,50,30.11,30.00,15,8,23,0.00
2013-5-11,69.9,59.9,49.6,53.4,43.8,33.5,86,59,29,30.27,30.10,21,8,30,0.00
2013-5-12,70.4,57.2,42.6,49.2,42.2,34.6,84,60,37,30.28,30.08,14,6,25,0.00
2013-5-13,83.7,67.0,48.9,63.3,52.7,42.3,78,62,39,30.11,29.97,9,5,12,0.00
2013-5-14,88.4,72.1,56.4,63.7,54.2,47.3,76,56,32,29.97,29.84,14,7,24,0.00
2013-5-15,81.4,69.6,61.3,66.0,59.9,54.1,87,72,55,29.91,29.82,13,7,25,0.00
2013-5-16,77.8,68.5,60.5,63.2,60.4,56.3,90,76,55,29.90,29.81,9,4,15,0.00
2013-5-17,82.1,70.1,58.8,67.1,61.6,55.6,92,76,56,29.93,29.84,11,5,15,0.00
2013-5-18,85.2,76.5,69.1,73.5,68.6,57.0,88,77,52,29.89,29.65,17,9,20,0.00
2013-5-19,83.6,70.4,63.6,72.1,62.7,55.8,88,77,54,29.81,29.49,23,8,40,1.41
2013-5-20,81.7,70.2,57.4,61.9,57.0,50.7,88,65,36,29.82,29.67,11,4,24,0.00
2013-5-21,73.7,65.3,56.8,54.4,50.3,47.3,75,59,41,29.89,29.76,11,5,14,0.00
2013-5-22,77.3,65.6,54.8,59.3,52.0,46.8,76,62,43,29.97,29.82,11,5,16,0.00
2013-5-23,72.4,64.0,57.1,59.6,54.1,49.8,83,71,57,30.18,29.97,12,5,17,0.00
2013-5-24,78.2,68.4,58.0,66.6,59.9,52.5,83,75,65,30.22,30.07,14,9,17,0.00
2013-5-25,82.6,73.9,65.7,68.5,65.1,61.1,87,75,59,30.12,29.97,17,10,22,0.00
2013-5-26,82.9,73.8,66.9,71.1,66.6,61.8,86,78,66,30.02,29.88,18,11,26,0.00
2013-5-27,83.2,75.7,71.7,71.7,68.2,66.5,86,78,65,29.89,29.65,19,14,30,0.00
2013-5-28,84.3,76.6,71.9,73.7,68.5,65.6,85,77,65,29.79,29.65,19,11,33,0.00
2013-5-29,82.1,73.3,63.2,69.1,65.4,58.6,86,77,63,29.77,29.58,24,15,34,0.23
2013-5-30,80.0,69.3,59.8,67.1,61.3,56.2,89,77,53,29.78,29.55,23,7,30,1.77
2013-5-31,83.6,74.7,67.2,72.2,65.7,57.7,90,75,44,29.79,29.65,15,5,21,0.00
2013-6-1,73.3,67.4,60.9,62.6,53.6,47.8,83,62,51,30.08,29.75,17,9,20,0.00
2013-6-2,73.4,62.9,52.5,52.1,48.8,45.9,80,61,40,30.15,30.02,15,7,19,0.00
2013-6-3,81.1,67.3,53.4,63.1,55.7,49.6,87,68,43,30.03,29.81,17,9,25,0.00
2013-6-4,84.7,75.0,66.3,69.7,64.6,59.6,85,71,57,29.95,29.69,33,7,49,0.00
2013-6-5,76.0,70.0,63.2,66.5,63.0,55.9,88,79,68,30.03,29.83,15,7,19,1.37
2013-6-6,77.0,67.4,58.6,57.4,54.3,50.6,84,65,42,30.04,29.97,13,6,21,0.00
2013-6-7,79.9,68.3,56.4,59.6,55.5,51.6,85,66,42,30.04,29.91,6,2,12,0.00
2013-6-8,83.6,71.0,61.5,62.9,58.8,55.6,86,67,44,29.93,29.72,19,9,27,0.19
2013-6-9,88.2,74.1,59.9,66.7,59.0,49.7,90,63,33,29.94,29.84,11,4,15,0.00
2013-6-10,96.8,80.7,64.7,74.2,65.6,58.9,88,63,38,29.91,29.80,10,5,14,0.00
2013-6-11,97.0,83.9,69.7,68.2,62.3,53.3,74,51,26,29.91,29.79,19,10,31,0.00
2013-6-12,99.1,86.1,74.1,72.3,68.3,64.5,79,58,33,29.98,29.83,13,6,23,0.00
2013-6-13,88.9,78.5,66.4,68.9,62.4,54.8,68,58,49,30.10,29.96,12,7,22,0.00
2013-6-14,99.4,84.4,69.7,72.6,66.4,58.5,85,59,27,30.00,29.85,13,7,23,0.00
2013-6-15,91.1,80.5,73.0,69.1,66.5,64.3,82,63,44,30.00,29.88,20,7,27,0.00
2013-6-16,91.6,79.1,70.1,70.1,67.0,62.0,87,68,42,30.01,29.90,14,5,20,0.00
2013-6-17,82.7,74.0,66.7,71.1,65.9,61.6,89,77,56,30.05,29.82,19,4,23,1.03
2013-6-18,88.8,77.2,65.2,69.9,63.6,55.6,90,66,37,30.07,29.96,9,3,14,0.00
2013-6-19,86.7,76.8,66.5,70.0,65.5,61.5,88,70,48,30.06,29.92,15,8,21,0.25
2013-6-20,95.3,83.1,72.1,72.6,69.2,66.2,84,65,43,29.97,29.86,21,12,30,0.00
2013-6-21,96.5,86.0,77.1,71.5,68.6,66.1,70,57,38,29.96,29.87,20,13,29,0.00
2013-6-22,94.6,84.5,75.3,68.6,65.8,59.8,75,55,38,29.95,29.84,22,13,33,0.00
2013-6-23,95.3,84.3,76.4,69.0,66.2,61.8,71,56,36,29.91,29.81,18,12,27,0.00
2013-6-24,93.5,83.8,76.0,69.3,66.9,64.8,71,58,40,29.95,29.81,20,12,26,0.00
2013-6-25,95.9,85.2,77.3,71.7,69.2,65.9,75,60,43,29.95,29.72,19,13,31,0.01
2013-6-26,101.3,87.3,74.3,74.0,69.8,63.0,81,59,30,29.93,29.80,9,4,24,0.00
2013-6-27,104.3,86.7,73.2,75.9,72.1,63.6,89,65,35,30.02,29.82,34,5,55,0.49
2013-6-28,94.6,81.9,70.9,70.4,65.7,58.4,87,61,32,30.08,29.93,13,6,17,0.00
2013-6-29,90.0,79.3,67.2,62.8,56.8,48.9,75,49,29,30.02,29.89,17,8,26,0.00
2013-6-30,84.2,73.8,62.7,61.9,55.0,51.1,78,54,34,30.08,29.96,14,7,22,0.00
2013-7-1,84.6,72.0,59.9,58.4,52.4,47.2,80,53,30,30.16,30.07,13,6,17,0.00
2013-7-2,86.3,73.4,60.1,60.6,50.7,42.0,71,48,22,30.16,30.07,13,5,19,0.00
2013-7-3,87.1,71.3,57.4,56.3,51.2,45.7,81,53,26,30.13,29.99,9,3,12,0.00
2013-7-4,91.4,75.1,58.3,59.4,54.5,49.3,81,52,25,30.04,29.92,10,5,16,0.00
2013-7-5,92.2,80.1,65.1,63.0,58.0,52.2,79,50,26,29.99,29.87,20,10,28,0.00
2013-7-6,84.6,77.1,71.8,69.5,64.3,60.0,81,65,57,29.96,29.86,15,8,24,0.04
2013-7-7,99.5,86.1,74.4,66.7,63.4,59.7,69,49,28,30.00,29.91,16,9,22,0.05
2013-7-8,100.7,87.4,74.8,69.1,65.2,60.3,70,50,27,30.07,29.96,14,7,21,0.00
2013-7-9,106.9,91.3,77.8,70.5,66.1,59.5,72,47,22,30.03,29.88,12,7,18,0.00
2013-7-10,100.7,88.6,72.2,71.5,66.6,62.3,80,51,29,30.03,29.94,10,4,14,0.01
2013-7-11,94.5,84.4,77.7,71.7,67.0,62.2,67,57,39,30.08,29.93,15,6,21,0.00
2013-7-12,100.6,86.9,72.6,70.4,66.0,62.1,71,52,31,30.00,29.91,13,6,20,0.00
2013-7-13,100.6,88.0,73.7,71.5,68.3,65.8,79,54,35,30.01,29.90,10,6,17,0.00
2013-7-14,84.1,74.4,68.7,71.8,67.0,62.1,89,79,57,30.09,29.94,12,3,20,0.72
2013-7-15,79.9,70.9,64.3,69.5,64.3,60.0,88,80,65,30.20,30.08,14,3,21,0.43
2013-7-16,90.3,77.2,64.9,69.9,65.8,61.6,90,70,45,30.30,30.19,10,3,16,0.01
2013-7-17,92.3,79.6,68.4,73.5,68.4,65.0,90,70,44,30.33,30.20,8,2,12,0.00
2013-7-18,92.7,80.9,68.8,72.2,67.6,63.8,91,67,42,30.23,30.03,9,3,16,0.00
2013-7-19,96.0,83.9,70.8,70.2,66.6,63.9,84,59,37,30.06,29.90,8,4,14,0.00
2013-7-20,97.8,81.7,72.4,71.3,67.3,61.4,85,65,31,29.96,29.83,18,5,28,0.31
2013-7-21,88.3,78.5,70.2,73.8,70.4,66.5,89,77,60,29.93,29.82,10,5,15,0.59
2013-7-22,87.9,78.4,71.4,74.2,69.9,58.5,88,76,46,29.95,29.81,19,3,23,0.23
2013-7-23,93.5,82.1,69.3,75.2,69.0,57.9,88,65,49,30.00,29.79,15,5,28,1.20
2013-7-24,88.9,77.7,69.3,74.0,67.7,62.4,90,73,46,30.07,29.93,9,3,16,0.03
2013-7-25,88.0,77.8,68.7,73.4,68.8,63.0,87,75,56,30.08,30.00,10,4,16,0.00
2013-7-26,86.1,76.4,67.8,72.5,66.9,61.5,91,74,49,30.10,29.98,20,5,30,2.27
2013-7-27,80.5,71.3,62.2,64.4,58.9,55.5,82,65,51,30.14,29.98,10,5,14,0.08
2013-7-28,67.0,64.6,62.2,63.0,60.6,58.1,90,87,82,30.09,29.98,9,4,14,1.43
2013-7-29,85.3,75.0,65.0,74.9,68.3,59.8,87,80,65,30.03,29.82,20,6,20,0.05
2013-7-30,82.5,75.7,72.0,73.7,70.5,68.5,91,84,71,30.11,29.95,7,2,13,0.02
2013-7-31,86.6,76.6,68.3,72.9,69.0,65.4,91,79,54,30.17,30.07,6,2,11,0.00
2013-8-1,89.0,78.5,66.8,71.5,67.8,63.8,91,71,50,30.15,29.95,9,4,13,0.00
2013-8-2,93.7,82.0,71.8,79.8,73.7,66.2,90,77,61,29.98,29.83,13,6,19,1.54
2013-8-3,87.5,79.6,73.2,77.5,72.5,67.4,89,79,66,30.07,29.91,11,6,18,0.53
2013-8-4,78.4,75.2,72.7,73.2,71.3,69.2,91,88,83,30.13,30.01,13,4,25,3.16
2013-8-5,92.3,81.8,71.7,78.6,73.3,67.6,90,77,57,30.02,29.82,17,4,25,0.13
2013-8-6,92.5,82.0,71.6,77.5,72.1,66.1,89,73,52,29.95,29.78,7,3,13,0.04
2013-8-7,89.8,80.4,72.6,74.5,70.8,67.1,89,74,52,29.95,29.80,16,4,19,0.04
2013-8-8,81.4,77.2,69.6,71.8,69.7,65.3,87,78,67,30.00,29.85,10,4,14,1.26
2013-8-9,75.4,70.3,64.8,68.8,64.7,58.7,90,83,68,30.16,29.97,12,5,22,0.45
2013-8-10,84.7,73.9,63.7,68.6,64.7,60.4,91,74,53,30.20,30.08,6,2,14,0.00
2013-8-11,86.2,76.7,66.0,73.5,68.5,62.7,90,77,58,30.15,30.02,6,2,9,0.00
2013-8-12,86.7,77.5,69.7,74.1,70.7,66.0,90,80,58,30.09,29.98,8,2,13,0.44
2013-8-13,84.1,73.4,68.3,71.7,68.0,64.9,90,84,62,30.14,30.02,18,3,23,2.07
2013-8-14,81.5,71.6,61.9,65.6,62.7,59.2,91,75,51,30.19,30.07,6,3,10,0.00
2013-8-15,83.7,71.4,63.8,70.9,63.9,58.9,89,78,62,30.12,29.98,17,3,21,0.75
2013-8-16,80.8,70.5,62.3,67.9,63.5,59.3,91,79,59,30.15,30.05,5,2,8,0.01
2013-8-17,80.4,71.0,62.3,65.6,61.4,58.4,88,72,55,30.19,30.08,6,2,10,0.00
2013-8-18,83.1,72.3,61.1,66.5,62.1,56.6,87,71,53,30.17,30.05,7,3,14,0.00
2013-8-19,86.8,76.1,65.5,69.4,65.8,61.5,87,72,53,30.11,30.00,11,5,15,0.00
2013-8-20,90.6,78.0,66.6,70.4,66.4,62.6,87,69,46,30.08,29.99,9,4,13,0.00
2013-8-21,92.8,79.0,68.5,68.9,65.6,63.1,84,66,39,30.08,30.01,8,4,12,0.00
2013-8-22,90.9,79.5,66.6,71.2,67.4,62.7,89,68,43,30.10,30.01,7,4,12,0.00
2013-8-23,93.6,81.5,71.0,74.4,70.4,66.6,87,70,44,30.07,29.97,10,4,16,0.00
2013-8-24,93.5,82.0,71.3,74.3,70.7,67.6,88,70,48,30.13,30.03,11,5,17,0.00
2013-8-25,94.7,82.0,71.7,73.9,70.0,67.2,87,69,43,30.19,30.09,10,5,15,0.00
2013-8-26,94.1,82.4,73.0,71.4,68.6,66.2,86,65,41,30.19,30.08,10,5,16,0.00
2013-8-27,93.6,80.8,68.6,69.9,65.6,60.5,87,63,34,30.11,30.01,9,4,14,0.00
2013-8-28,92.8,80.0,66.9,72.9,69.1,63.6,90,71,50,30.07,30.00,9,3,13,0.00
2013-8-29,98.5,84.1,72.1,71.8,67.3,61.8,85,61,31,30.06,29.96,7,3,13,0.00
2013-8-30,101.7,84.8,70.3,72.7,66.1,52.9,85,58,22,30.00,29.86,5,2,10,0.00
2013-8-31,102.0,84.8,70.0,73.0,67.4,60.1,85,60,26,29.92,29.79,7,2,13,0.00
2013-9-1,89.9,80.5,72.9,73.6,67.9,60.9,80,66,57,30.02,29.81,10,4,14,0.02
2013-9-2,86.8,74.3,60.8,64.0,59.5,53.9,87,63,34,30.11,30.00,7,2,9,0.00
2013-9-3,88.3,73.9,59.8,65.1,59.7,53.4,89,64,32,30.12,30.02,5,2,10,0.00
2013-9-4,91.3,75.1,58.4,64.5,58.4,47.9,89,61,24,30.17,30.07,7,2,12,0.00
2013-9-5,92.8,79.3,64.5,67.1,62.9,58.1,86,60,32,30.19,30.08,6,3,11,0.00
2013-9-6,96.5,81.8,67.6,67.2,64.7,61.9,83,59,34,30.13,29.98,9,4,14,0.00
2013-9-7,100.6,83.9,68.7,69.0,65.0,60.4,83,57,28,30.02,29.91,9,3,13,0.00
2013-9-8,99.8,84.7,69.4,68.7,63.1,57.5,81,52,27,29.96,29.86,8,3,14,0.00
2013-9-9,96.4,82.7,66.6,66.9,59.7,50.4,76,49,22,29.97,29.90,13,6,21,0.00
2013-9-10,95.3,82.0,69.2,67.5,60.8,55.8,74,51,30,30.10,29.96,12,6,23,0.00
2013-9-11,94.8,80.7,68.3,69.0,62.1,57.6,74,55,32,30.15,30.03,9,3,12,0.00
2013-9-12,84.0,76.3,72.8,70.5,67.1,62.0,83,73,61,30.18,30.08,9,4,15,0.00
2013-9-13,80.0,72.8,67.9,67.4,52.0,47.6,84,49,36,30.17,30.03,9,6,16,0.00
2013-9-14,86.6,73.0,60.6,62.3,56.3,48.9,72,57,43,30.07,29.93,10,4,16,0.00
2013-9-15,94.8,76.9,64.6,67.9,62.6,58.3,87,64,35,30.09,29.94,17,5,20,0.35
2013-9-16,77.3,70.8,67.2,69.1,65.9,63.2,89,85,73,30.19,30.09,12,4,18,0.05
2013-9-17,83.9,73.9,67.2,70.7,67.0,64.2,90,80,59,30.16,29.95,13,6,19,0.31
2013-9-18,93.5,80.1,70.2,71.3,66.2,62.2,86,65,37,29.98,29.83,16,7,25,0.00
2013-9-19,93.3,78.2,66.9,69.7,65.8,63.2,89,68,40,30.01,29.80,20,7,37,1.45
2013-9-20,75.1,66.2,57.5,64.7,54.6,49.8,89,68,42,30.11,29.98,12,6,19,0.00
2013-9-21,81.2,66.0,52.4,60.1,54.1,48.9,89,69,40,30.06,29.92,5,1,16,0.00
2013-9-22,72.5,59.1,54.1,58.1,53.3,50.0,87,81,55,29.98,29.93,9,2,11,0.00
2013-9-28,72.9,65.5,53.0,51.2,46.1,42.6,75,51,34,30.12,30.03,12,6,17,0.61
2013-9-29,75.1,60.3,46.4,51.9,46.4,40.5,87,64,30,30.12,29.94,6,2,17,0.00
2013-9-30,80.5,64.4,48.9,55.6,51.1,45.2,88,65,34,29.94,29.81,11,4,17,0.00
2013-10-1,85.1,70.4,55.7,64.9,58.4,50.0,82,67,47,29.95,29.84,10,5,17,0.00
2013-10-2,83.9,73.7,65.1,70.9,66.1,60.9,90,78,61,29.99,29.85,15,6,21,0.00
2013-10-3,88.6,78.2,71.3,70.1,67.3,65.8,85,70,51,29.87,29.71,15,10,26,0.00
2013-10-4,89.6,75.7,57.8,69.9,63.0,35.3,85,66,42,30.01,29.74,24,10,33,0.19
2013-10-5,65.6,55.0,49.2,38.9,35.1,31.5,64,48,31,30.14,29.99,17,9,25,0.00
2013-10-6,70.7,57.2,47.7,41.4,32.6,22.1,63,42,17,30.07,29.99,14,8,25,0.00
2013-10-7,75.2,58.6,42.7,43.7,37.8,31.6,76,49,22,30.20,30.07,7,3,11,0.00
2013-10-8,78.3,62.1,47.2,49.9,44.9,40.2,79,56,30,30.09,29.96,17,8,24,0.00
2013-10-9,81.4,65.6,53.2,55.0,50.9,47.1,80,62,34,30.04,29.95,14,8,20,0.00
2013-10-10,82.7,67.8,57.2,60.5,55.8,51.8,83,67,45,30.01,29.82,18,9,23,0.00
2013-10-11,83.9,70.9,61.2,63.3,49.8,25.8,80,53,14,29.92,29.74,15,9,24,0.00
2013-10-12,73.8,61.5,52.9,45.5,40.0,34.3,61,47,25,30.24,29.92,13,7,19,0.00
2013-10-13,71.5,60.3,46.1,50.1,43.3,37.7,74,55,35,30.32,30.20,14,6,20,0.00
2013-10-14,65.7,62.6,58.6,62.3,55.4,46.3,89,78,54,30.20,29.85,19,10,28,0.55
2013-10-15,61.5,54.0,46.6,55.4,41.9,37.5,89,65,43,30.16,29.92,15,8,20,0.01
2013-10-16,57.0,48.0,40.4,44.4,38.4,34.8,87,70,51,30.17,30.04,8,4,12,0.00
2013-10-17,68.3,52.1,38.3,48.0,39.0,29.2,90,66,25,30.07,29.94,11,3,16,0.00
2013-10-18,49.4,41.0,33.3,39.7,35.2,29.8,88,80,68,30.17,30.04,13,7,19,0.17
2013-10-19,67.1,47.9,31.3,43.8,36.1,28.4,89,67,35,30.16,29.94,9,3,19,0.00
2013-10-20,71.9,55.2,39.4,47.6,42.0,33.7,84,63,38,29.96,29.81,9,3,15,0.00
2013-10-21,61.9,52.5,46.1,44.2,38.1,32.1,74,59,36,30.15,29.96,14,6,16,0.00
2013-10-22,71.1,56.7,45.1,44.3,40.6,37.3,75,57,33,30.11,29.99,13,6,23,0.00
2013-10-23,68.3,51.7,36.6,44.5,39.6,32.5,88,66,39,30.17,30.01,11,3,12,0.00
2013-10-24,55.7,47.4,38.0,42.4,34.1,29.4,80,61,39,30.41,30.12,11,6,19,0.00
2013-10-25,60.7,46.3,31.5,39.2,32.1,25.4,84,61,28,30.43,30.14,12,5,18,0.00
2013-10-26,65.6,53.1,40.7,53.9,39.8,27.8,85,64,26,30.18,30.10,15,4,18,0.08
2013-10-27,66.9,47.9,31.5,39.6,32.5,26.9,85,59,26,30.18,29.93,8,3,13,0.00
2013-10-28,67.8,57.8,42.7,56.8,50.9,32.8,89,78,62,30.08,29.95,12,7,18,0.00
2013-10-29,72.6,64.7,60.2,66.5,60.4,55.1,91,86,77,30.00,29.91,14,4,23,1.08
2013-10-30,73.6,61.8,53.2,68.1,56.7,-99.9,90,86,74,29.98,29.74,13,6,18,0.39
2013-10-31,65.2,54.5,48.6,50.4,45.8,40.1,92,74,42,29.77,29.61,16,7,23,0.62
2013-11-1,63.8,53.7,42.1,44.3,39.0,36.1,83,59,39,30.11,29.76,15,6,23,0.00
2013-11-2,61.0,49.9,40.1,37.3,33.4,28.5,72,55,30,30.29,30.10,10,6,16,0.00
2013-11-3,63.8,52.0,42.6,41.8,37.4,32.9,71,58,41,30.15,29.83,24,13,31,0.00
2013-11-4,63.1,56.4,49.3,52.0,45.3,41.5,81,67,47,30.06,29.81,16,6,29,0.00
2013-11-5,61.8,56.3,42.2,58.8,52.4,37.4,92,87,81,30.07,29.85,19,10,26,0.47
2013-11-6,49.1,41.7,36.2,38.1,34.6,31.8,84,76,59,30.33,30.07,19,7,28,0.00
2013-11-7,62.3,46.7,32.8,40.0,34.7,29.4,89,67,33,30.43,30.28,7,2,26,0.00
2013-11-8,66.0,52.6,39.9,40.3,36.3,32.2,80,56,30,30.28,29.89,22,10,39,0.00
2013-11-9,64.7,52.0,38.7,45.2,39.8,33.1,85,64,45,30.27,29.99,7,3,11,0.00
2013-11-10,64.0,52.6,41.5,50.0,43.1,37.1,87,71,46,30.36,30.23,13,4,16,0.00
2013-11-11,59.0,49.3,30.6,52.6,43.1,20.6,86,79,66,30.61,30.15,23,9,29,0.00
2013-11-12,37.6,29.6,23.2,20.2,14.8,9.4,74,55,32,30.84,30.60,20,8,27,0.00
2013-11-13,50.3,35.9,22.3,28.1,21.0,15.4,86,57,38,30.64,30.18,13,7,27,0.00
2013-11-14,57.0,44.5,36.2,33.4,29.3,21.8,70,56,39,30.18,29.93,14,8,21,0.00
2013-11-15,61.4,49.0,35.6,47.6,39.4,29.6,85,71,48,29.96,29.67,14,8,21,0.00
2013-11-16,76.5,64.7,53.8,56.0,53.2,47.4,84,68,43,29.68,29.42,19,12,29,0.00
2013-11-17,68.3,58.4,48.7,50.0,29.1,5.7,67,37,10,30.10,29.43,24,13,41,0.00
2013-11-18,61.0,46.9,33.4,32.9,24.0,-99.9,79,45,16,30.29,30.07,18,3,21,0.00
2013-11-19,61.6,50.8,42.2,37.3,30.5,26.6,67,47,33,30.21,29.89,23,12,30,0.00
2013-11-20,63.2,55.3,50.4,49.6,40.0,28.2,73,57,41,29.92,29.80,20,10,26,0.00
2013-11-21,54.4,39.3,27.1,50.6,34.6,20.5,88,83,70,30.47,29.90,24,15,30,0.45
2013-11-22,30.5,27.4,24.6,20.9,18.5,14.8,77,69,52,30.62,30.47,25,15,34,0.00
2013-11-23,37.7,31.1,22.9,21.2,16.2,11.6,63,54,46,30.71,30.57,17,11,22,0.00
2013-11-24,30.1,24.9,20.2,16.1,12.7,9.1,73,60,42,30.69,30.28,10,5,17,0.00
2013-11-25,36.8,32.0,28.3,27.5,22.8,15.8,80,68,59,30.28,30.17,8,4,13,0.00
2013-11-26,41.7,32.6,23.6,27.8,20.5,11.8,80,62,42,30.43,30.19,26,11,36,0.00
2013-11-27,38.3,27.7,16.4,20.1,15.0,8.7,75,59,41,30.43,30.18,9,4,14,0.00
2013-11-28,49.3,35.6,23.8,29.8,24.4,18.0,83,65,45,30.40,30.16,9,4,14,0.00
2013-11-29,55.3,39.2,25.0,33.5,27.0,19.4,83,63,41,30.41,30.16,16,7,24,0.00
2013-11-30,59.1,42.9,31.2,38.3,32.9,26.6,87,70,42,30.17,30.07,10,3,13,0.00
2013-12-1,60.4,42.0,29.8,42.6,34.1,26.7,90,76,44,30.10,29.87,7,1,13,0.00
2013-12-2,56.5,39.4,29.7,43.3,34.6,26.6,90,83,58,29.88,29.61,7,2,9,0.00
2013-12-3,60.9,43.1,29.4,50.5,38.2,26.8,92,84,58,29.62,29.49,10,3,14,0.00
2013-12-4,45.9,31.3,24.2,43.0,22.6,-99.9,90,75,54,30.10,29.53,23,13,32,0.00
2013-12-5,24.4,19.8,17.7,12.0,6.6,3.8,70,56,50,30.36,30.09,23,14,28,0.00
2013-12-6,23.3,17.4,11.6,9.4,1.5,-2.8,69,50,35,30.58,30.30,20,14,25,0.00
2013-12-7,24.0,16.6,7.1,7.4,1.8,-2.2,69,53,37,30.62,30.25,11,-14,19,0.00
2013-12-8,25.4,22.8,19.7,20.6,16.4,7.3,84,77,54,30.25,29.93,14,7,15,0.00
2013-12-9,20.8,16.1,10.2,12.5,6.4,1.0,80,66,54,30.37,30.18,14,-6,17,0.00
2013-12-10,42.8,23.7,8.5,21.5,10.6,0.7,77,59,30,30.34,30.13,13,4,17,0.00
2013-12-11,34.6,25.1,15.1,21.7,12.1,4.2,80,59,34,30.59,30.20,20,8,24,0.00
2013-12-12,47.4,29.6,13.8,25.2,16.5,4.1,75,60,36,30.56,30.11,14,7,21,0.00
2013-12-13,47.2,39.6,31.6,39.6,33.0,24.6,88,77,67,30.12,29.76,16,8,20,0.00
2013-12-14,39.2,30.7,21.2,32.9,21.5,15.1,80,69,51,30.23,29.90,22,11,32,0.00
2013-12-15,62.1,38.2,19.5,30.2,22.2,14.5,86,58,25,30.22,30.04,10,3,25,0.00
2013-12-16,63.4,42.7,27.9,28.9,24.3,20.1,79,52,24,30.14,30.03,10,2,14,0.00
2013-12-17,58.0,39.9,26.9,32.3,23.7,18.5,82,56,26,30.33,30.13,18,4,21,0.00
2013-12-18,66.4,47.1,30.0,37.4,30.1,-99.9,78,55,31,30.23,29.78,19,8,31,0.00
2013-12-19,62.4,53.1,37.0,49.4,44.4,29.8,86,73,58,29.78,29.60,19,9,27,0.00
2013-12-20,37.4,23.6,19.0,29.5,16.7,13.0,83,75,68,30.00,29.71,25,11,31,0.00
2013-12-21,29.2,25.7,24.4,25.8,19.2,-99.9,87,79,69,29.88,29.59,12,-15,31,0.00
2013-12-22,26.2,19.9,6.3,21.6,15.1,1.4,87,82,75,30.34,29.81,13,6,16,0.06
2013-12-23,21.1,14.8,4.5,13.9,9.6,-0.3,84,79,73,30.58,30.34,10,-68,13,0.00
2013-12-24,32.7,24.2,17.1,29.4,20.3,13.4,88,85,80,30.51,30.13,14,8,18,0.00
2013-12-25,42.7,31.7,22.1,31.6,25.8,17.6,88,79,61,30.39,30.26,7,2,10,0.02
2013-12-26,44.1,30.9,18.7,32.2,24.3,14.9,87,77,60,30.36,30.20,10,3,14,0.00
2013-12-27,48.0,34.4,21.5,34.7,27.1,17.7,87,76,49,30.34,30.20,6,2,8,0.00
2013-12-28,52.9,40.3,29.8,38.5,32.0,24.6,84,73,55,30.20,29.86,11,5,16,0.00
2013-12-29,41.8,22.4,13.3,35.2,11.1,2.1,79,62,44,30.32,29.95,27,16,40,0.00
2013-12-30,36.1,22.8,10.6,20.5,11.8,1.8,79,63,45,30.31,30.19,9,3,33,0.00
2013-12-31,52.9,37.2,22.2,29.7,24.7,17.2,83,63,38,30.30,30.05,17,8,26,0.00
2014-1-1,39.7,27.4,14.5,29.8,20.3,8.6,82,74,65,30.34,29.93,25,12,30,0.00
2014-1-2,32.0,19.9,7.9,22.3,11.4,-99.9,79,72,62,30.44,30.33,17,-3,23,0.00